Location: Écuvilly
(49.6505°N, 2.9206°E)
Time: 16:57:26
(UTC+00:00)

Cosmos 2344 - Pass Details

Date: 17 November 2025
Orbit: 1197 x 3045 km, 63.3° (Epoch: 09 December)

Event Time Altitude Azimuth Distance (km) Brightness Sun altitude
Rises 18:32:06 0° 316° (NW) 4,180 6.9 -23.9°
Reaches altitude 10° 18:34:37 10° 317° (NW) 3,288 6.2 -24.3°
Maximum altitude 18:42:27 81° 46° (NE) 1,528 3.8 -25.6°
Enters shadow 18:47:33 33° 130° (SE) 2,575 4.7 -26.4°
